Weather History for PHMK - February, 2013

Change the Weather History Date:

Saturday, February 23, 2013

  Actual Average Record
Temperature  
Mean Temperature 70 °F -  
Max Temperature 75 °F 77 °F 82 °F (2015)
Min Temperature 66 °F 64 °F 56 °F (1962)
Cooling Degree Days 6    
Growing Degree Days 20 (Base 50)    
Moisture  
Dew Point 62 °F    
Average Humidity 75    
Maximum Humidity 87    
Minimum Humidity 62    
Precipitation  
Precipitation 0.01 in - - ()
Sea Level Pressure  
Sea Level Pressure 30.11 in    
Wind  
Wind Speed 13 mph (NE)    
Max Wind Speed 21 mph    
Max Gust Speed 33 mph    
Visibility 10 miles    
Events Rain    
Averages and records for this station are not official NWS values.
T = Trace of Precipitation, MM = Missing Value Source: NWS Daily Summary

Daily Weather History Graph

Daily Weather History Graph

Search for Another Location

Airport or City:

Trip Planner

Search our weather history database for the weather conditions in past years. The results will help you decide how hot, cold, wet, or windy it might be!

Date:

Astronomy

Feb. 23, 2013 Rise Set
Actual Time 6:53 AM HST 6:30 PM HST
Civil Twilight 6:30 AM HST 6:52 PM HST
Nautical Twilight 6:04 AM HST 7:18 PM HST
Astronomical Twilight 5:38 AM HST 7:44 PM HST
Moon 4:57 PM HST (2/23) 5:13 AM HST (2/23)
Length of Visible Light 12h 22m
Length of Day
11h 37m
Waxing Gibbous, 96% of the Moon is Illuminated
Feb 23
Waxing Gibbous
Feb 25
Full
Mar 4
Last Quarter
Mar 11
New
Mar 19
First Quarter

Hourly Weather History & Observations

Time (HST) Temp. Dew Point Humidity Pressure Visibility Wind Dir Wind Speed Gust Speed Precip Events Conditions
12:54 AM 68.0 °F 63.0 °F 84% 30.12 in 10.0 mi NE 13.8 mph 31.1 mph 0.00 in   Mostly Cloudy
1:09 AM 68.0 °F 62.6 °F 83% 30.11 in 10.0 mi NE 17.3 mph 27.6 mph N/A   Scattered Clouds
1:54 AM 68.0 °F 62.1 °F 81% 30.10 in 10.0 mi NE 11.5 mph 24.2 mph N/A   Clear
2:54 AM 66.9 °F 61.0 °F 81% 30.09 in 10.0 mi NNE 8.1 mph - N/A   Clear
3:54 AM 68.0 °F 61.0 °F 78% 30.07 in 10.0 mi NNE 9.2 mph - N/A   Clear
4:54 AM 66.9 °F 61.0 °F 81% 30.08 in 10.0 mi NNE 13.8 mph 20.7 mph N/A   Clear
5:54 AM 68.0 °F 57.0 °F 68% 30.09 in 10.0 mi NE 9.2 mph - N/A   Clear
6:54 AM 68.0 °F 60.1 °F 76% 30.12 in 10.0 mi NNE 10.4 mph - N/A   Clear
7:54 AM 69.1 °F 60.1 °F 73% 30.13 in 10.0 mi NE 11.5 mph 23.0 mph N/A   Clear
8:54 AM 73.0 °F 60.1 °F 64% 30.14 in 10.0 mi NNE 10.4 mph - N/A   Clear
9:54 AM 73.9 °F 61.0 °F 64% 30.15 in 10.0 mi NE 13.8 mph 24.2 mph N/A   Partly Cloudy
10:54 AM 73.0 °F 62.1 °F 68% 30.15 in 10.0 mi NNE 13.8 mph 25.3 mph N/A   Clear
11:54 AM 75.0 °F 63.0 °F 66% 30.12 in 10.0 mi NE 13.8 mph 33.4 mph N/A   Clear
12:54 PM 75.0 °F 63.0 °F 66% 30.09 in 10.0 mi NE 18.4 mph 31.1 mph N/A   Partly Cloudy
1:54 PM 75.9 °F 62.1 °F 62% 30.07 in 10.0 mi NNE 12.7 mph 23.0 mph N/A   Partly Cloudy
2:54 PM 75.0 °F 62.1 °F 64% 30.06 in 10.0 mi NE 17.3 mph 29.9 mph N/A   Partly Cloudy
3:54 PM 73.0 °F 63.0 °F 71% 30.06 in 10.0 mi NE 18.4 mph 31.1 mph N/A   Partly Cloudy
4:54 PM 72.0 °F 62.1 °F 71% 30.08 in 10.0 mi NE 13.8 mph 26.5 mph 0.00 in   Scattered Clouds
5:54 PM 71.1 °F 62.1 °F 73% 30.10 in 10.0 mi NE 11.5 mph 21.9 mph 0.00 in   Scattered Clouds
6:54 PM 66.9 °F 62.1 °F 84% 30.12 in 10.0 mi ENE 12.7 mph 26.5 mph 0.00 in   Mostly Cloudy
7:54 PM 66.9 °F 63.0 °F 87% 30.13 in 10.0 mi NE 13.8 mph 25.3 mph 0.00 in Rain Light Rain
8:54 PM 68.0 °F 63.0 °F 84% 30.14 in 10.0 mi NE 17.3 mph 25.3 mph 0.01 in Rain Light Rain
9:54 PM 68.0 °F 62.1 °F 81% 30.14 in 10.0 mi NE 20.7 mph 29.9 mph 0.00 in   Overcast
10:54 PM 68.0 °F 62.1 °F 81% 30.14 in 10.0 mi NE 15.0 mph 31.1 mph N/A   Partly Cloudy
11:54 PM 68.0 °F 62.1 °F 81% 30.14 in 10.0 mi NE 12.7 mph 24.2 mph N/A   Overcast